Time,TemperatureF,DewpointF,PressureIn,WindDirection,WindDirectionDegrees,WindSpeedMPH,WindSpeedGustMPH,Humidity,HourlyPrecipIn,Conditions,Clouds,dailyrainin,SoftwareType,DateUTC
2013-04-02 00:02:00,43.9,28.7,30.03,NW,315,0.0,2.5,55,0.00,,,0.00,WUHU21523XXSP,2013-04-02 04:02:00,
2013-04-02 00:07:00,43.9,28.7,30.03,NW,315,0.0,2.5,55,0.00,,,0.00,WUHU21523XXSP,2013-04-02 04:07:00,
2013-04-02 00:12:00,43.7,28.5,30.03,NNW,337,1.1,1.1,55,0.00,,,0.00,WUHU21523XXSP,2013-04-02 04:12:00,
2013-04-02 00:17:00,43.7,29.0,30.03,NW,315,0.0,1.1,56,0.00,,,0.00,WUHU21523XXSP,2013-04-02 04:17:00,
2013-04-02 00:22:00,43.5,28.8,30.04,North,0,0.0,0.0,56,0.00,,,0.00,WUHU21523XXSP,2013-04-02 04:22:00,
2013-04-02 00:27:00,43.5,28.8,30.04,NW,315,4.3,4.3,56,0.00,,,0.00,WUHU21523XXSP,2013-04-02 04:27:00,
2013-04-02 00:32:00,43.5,28.8,30.04,NNW,337,2.0,4.3,56,0.00,,,0.00,WUHU21523XXSP,2013-04-02 04:32:00,
2013-04-02 00:37:00,43.3,28.6,30.04,NNW,337,2.2,2.2,56,0.00,,,0.00,WUHU21523XXSP,2013-04-02 04:37:00,
2013-04-02 00:42:00,43.3,28.6,30.04,NW,315,2.2,2.2,56,0.00,,,0.00,WUHU21523XXSP,2013-04-02 04:42:00,
2013-04-02 00:47:00,43.2,28.5,30.04,North,0,0.0,4.5,56,0.00,,,0.00,WUHU21523XXSP,2013-04-02 04:47:00,
2013-04-02 00:52:00,43.2,28.5,30.04,NNE,22,0.0,4.5,56,0.00,,,0.00,WUHU21523XXSP,2013-04-02 04:52:00,
2013-04-02 00:57:00,43.2,28.5,30.04,North,0,0.0,0.0,56,0.00,,,0.00,WUHU21523XXSP,2013-04-02 04:57:00,
2013-04-02 01:02:00,43.2,28.5,30.04,North,0,0.0,0.0,56,0.00,,,0.00,WUHU21523XXSP,2013-04-02 05:02:00,
2013-04-02 01:07:00,43.0,28.3,30.04,NNW,337,0.0,0.0,56,0.00,,,0.00,WUHU21523XXSP,2013-04-02 05:07:00,
2013-04-02 01:17:00,43.0,28.3,30.04,NW,315,0.0,0.0,56,0.00,,,0.00,WUHU21523XXSP,2013-04-02 05:17:00,
2013-04-02 01:22:00,43.0,28.3,30.04,WNW,292,0.0,0.0,56,0.00,,,0.00,WUHU21523XXSP,2013-04-02 05:22:00,
2013-04-02 01:27:00,43.0,28.3,30.04,WNW,292,0.0,0.0,56,0.00,,,0.00,WUHU21523XXSP,2013-04-02 05:27:00,
2013-04-02 01:32:00,43.0,28.7,30.04,WNW,292,0.0,0.0,57,0.00,,,0.00,WUHU21523XXSP,2013-04-02 05:32:00,
2013-04-02 01:37:00,43.0,28.7,30.04,SW,225,0.0,0.0,57,0.00,,,0.00,WUHU21523XXSP,2013-04-02 05:37:00,
2013-04-02 01:42:00,42.8,28.5,30.04,SW,225,0.0,0.0,57,0.00,,,0.00,WUHU21523XXSP,2013-04-02 05:42:00,
2013-04-02 01:47:00,42.6,28.8,30.04,SW,225,0.0,0.0,58,0.00,,,0.00,WUHU21523XXSP,2013-04-02 05:47:00,
2013-04-02 01:52:00,42.6,28.8,30.04,SW,225,0.0,0.0,58,0.00,,,0.00,WUHU21523XXSP,2013-04-02 05:52:00,
2013-04-02 01:57:00,42.4,28.6,30.04,SW,225,0.0,0.0,58,0.00,,,0.00,WUHU21523XXSP,2013-04-02 05:57:00,
2013-04-02 02:02:00,42.3,28.5,30.04,SW,225,0.0,0.0,58,0.00,,,0.00,WUHU21523XXSP,2013-04-02 06:02:00,
2013-04-02 02:07:00,42.1,28.3,30.04,SW,225,0.0,0.0,58,0.00,,,0.00,WUHU21523XXSP,2013-04-02 06:07:00,
2013-04-02 02:12:00,41.9,28.6,30.04,SW,225,0.0,0.0,59,0.00,,,0.00,WUHU21523XXSP,2013-04-02 06:12:00,
2013-04-02 02:17:00,41.5,28.3,30.04,SW,225,0.0,0.0,59,0.00,,,0.00,WUHU21523XXSP,2013-04-02 06:17:00,
2013-04-02 02:22:00,41.5,28.7,30.04,ENE,67,0.0,0.0,60,0.00,,,0.00,WUHU21523XXSP,2013-04-02 06:22:00,
2013-04-02 02:27:00,41.4,28.5,30.04,ENE,67,0.0,0.0,60,0.00,,,0.00,WUHU21523XXSP,2013-04-02 06:27:00,
2013-04-02 02:32:00,41.4,28.5,30.04,ENE,67,0.0,0.0,60,0.00,,,0.00,WUHU21523XXSP,2013-04-02 06:32:00,
2013-04-02 02:37:00,41.2,28.4,30.04,ENE,67,0.0,0.0,60,0.00,,,0.00,WUHU21523XXSP,2013-04-02 06:37:00,
2013-04-02 02:42:00,41.0,28.2,30.04,ENE,67,0.0,0.0,60,0.00,,,0.00,WUHU21523XXSP,2013-04-02 06:42:00,
2013-04-02 02:47:00,40.8,28.0,30.04,ENE,67,0.0,0.0,60,0.00,,,0.00,WUHU21523XXSP,2013-04-02 06:47:00,
2013-04-02 02:52:00,40.8,28.0,30.04,ENE,67,0.0,0.0,60,0.00,,,0.00,WUHU21523XXSP,2013-04-02 06:52:00,
2013-04-02 02:57:00,40.8,28.4,30.04,ENE,67,0.0,0.0,61,0.00,,,0.00,WUHU21523XXSP,2013-04-02 06:57:00,
2013-04-02 03:02:00,40.8,28.0,30.04,NE,45,0.0,0.0,60,0.00,,,0.00,WUHU21523XXSP,2013-04-02 07:02:00,
2013-04-02 03:07:00,40.8,28.0,30.04,NNE,22,0.0,0.0,60,0.00,,,0.00,WUHU21523XXSP,2013-04-02 07:07:00,
2013-04-02 03:12:00,40.6,27.4,30.04,NNE,22,0.0,0.0,59,0.00,,,0.00,WUHU21523XXSP,2013-04-02 07:12:00,
2013-04-02 03:17:00,40.6,27.4,30.04,North,0,0.0,0.0,59,0.00,,,0.00,WUHU21523XXSP,2013-04-02 07:17:00,
2013-04-02 03:22:00,40.6,27.4,30.04,North,0,0.0,0.0,59,0.00,,,0.00,WUHU21523XXSP,2013-04-02 07:22:00,
2013-04-02 03:27:00,40.5,27.2,30.04,North,0,0.0,0.0,59,0.00,,,0.00,WUHU21523XXSP,2013-04-02 07:27:00,
2013-04-02 03:32:00,40.5,27.2,30.04,North,0,0.0,0.0,59,0.00,,,0.00,WUHU21523XXSP,2013-04-02 07:32:00,
2013-04-02 03:37:00,40.3,27.1,30.04,North,0,0.0,0.0,59,0.00,,,0.00,WUHU21523XXSP,2013-04-02 07:37:00,
2013-04-02 03:42:00,40.1,26.9,30.04,West,270,0.0,0.0,59,0.00,,,0.00,WUHU21523XXSP,2013-04-02 07:42:00,
2013-04-02 03:47:00,39.9,26.7,30.05,NNW,337,0.0,0.0,59,0.00,,,0.00,WUHU21523XXSP,2013-04-02 07:47:00,
2013-04-02 03:57:00,39.7,26.1,30.05,East,90,6.0,6.0,58,0.00,,,0.00,WUHU21523XXSP,2013-04-02 07:57:00,
2013-04-02 04:02:00,39.7,25.6,30.05,NW,315,0.0,6.0,57,0.00,,,0.00,WUHU21523XXSP,2013-04-02 08:02:00,
2013-04-02 04:07:00,39.6,25.5,30.04,NNW,337,0.0,0.0,57,0.00,,,0.00,WUHU21523XXSP,2013-04-02 08:07:00,
2013-04-02 04:12:00,39.6,25.0,30.04,NNW,337,0.0,0.0,56,0.00,,,0.00,WUHU21523XXSP,2013-04-02 08:12:00,
2013-04-02 04:17:00,39.7,25.2,30.05,North,0,0.0,0.0,56,0.00,,,0.00,WUHU21523XXSP,2013-04-02 08:17:00,
2013-04-02 04:22:00,39.7,24.8,30.05,North,0,0.0,0.0,55,0.00,,,0.00,WUHU21523XXSP,2013-04-02 08:22:00,
2013-04-02 04:27:00,39.7,24.3,30.05,NNW,337,1.6,4.7,54,0.00,,,0.00,WUHU21523XXSP,2013-04-02 08:27:00,
2013-04-02 04:32:00,39.7,24.3,30.05,NNE,22,2.0,4.7,54,0.00,,,0.00,WUHU21523XXSP,2013-04-02 08:32:00,
2013-04-02 04:37:00,39.7,23.9,30.05,WNW,292,0.0,2.0,53,0.00,,,0.00,WUHU21523XXSP,2013-04-02 08:37:00,
2013-04-02 04:42:00,39.7,23.9,30.06,NNW,337,0.0,0.0,53,0.00,,,0.00,WUHU21523XXSP,2013-04-02 08:42:00,
2013-04-02 04:47:00,39.7,23.9,30.06,NNW,337,0.0,0.0,53,0.00,,,0.00,WUHU21523XXSP,2013-04-02 08:47:00,
2013-04-02 04:52:00,39.7,24.3,30.06,South,180,0.0,0.0,54,0.00,,,0.00,WUHU21523XXSP,2013-04-02 08:52:00,
2013-04-02 04:57:00,39.6,24.6,30.06,South,180,0.0,0.0,55,0.00,,,0.00,WUHU21523XXSP,2013-04-02 08:57:00,
2013-04-02 05:02:00,39.4,24.4,30.06,South,180,0.0,0.0,55,0.00,,,0.00,WUHU21523XXSP,2013-04-02 09:02:00,
2013-04-02 05:07:00,39.2,24.7,30.06,South,180,0.0,0.0,56,0.00,,,0.00,WUHU21523XXSP,2013-04-02 09:07:00,
2013-04-02 05:12:00,39.0,25.0,30.07,South,180,0.0,0.0,57,0.00,,,0.00,WUHU21523XXSP,2013-04-02 09:12:00,
2013-04-02 05:17:00,38.8,25.2,30.07,South,180,0.0,0.0,58,0.00,,,0.00,WUHU21523XXSP,2013-04-02 09:17:00,
2013-04-02 05:22:00,38.5,24.9,30.07,South,180,0.0,0.0,58,0.00,,,0.00,WUHU21523XXSP,2013-04-02 09:22:00,
2013-04-02 05:27:00,38.1,25.0,30.08,South,180,0.0,0.0,59,0.00,,,0.00,WUHU21523XXSP,2013-04-02 09:27:00,
2013-04-02 05:32:00,38.1,25.0,30.08,South,180,0.0,0.0,59,0.00,,,0.00,WUHU21523XXSP,2013-04-02 09:32:00,
2013-04-02 05:37:00,37.9,25.3,30.08,South,180,0.0,0.0,60,0.00,,,0.00,WUHU21523XXSP,2013-04-02 09:37:00,
2013-04-02 05:42:00,37.9,25.3,30.08,South,180,0.0,0.0,60,0.00,,,0.00,WUHU21523XXSP,2013-04-02 09:42:00,
2013-04-02 05:52:00,37.8,25.5,30.08,South,180,0.0,0.0,61,0.00,,,0.00,WUHU21523XXSP,2013-04-02 09:52:00,
2013-04-02 05:57:00,37.6,25.3,30.08,South,180,0.0,0.0,61,0.00,,,0.00,WUHU21523XXSP,2013-04-02 09:57:00,
2013-04-02 06:02:00,37.4,25.6,30.09,South,180,0.0,0.0,62,0.00,,,0.00,WUHU21523XXSP,2013-04-02 10:02:00,
2013-04-02 06:12:00,37.2,25.4,30.09,South,180,0.0,0.0,62,0.00,,,0.00,WUHU21523XXSP,2013-04-02 10:12:00,
2013-04-02 06:17:00,37.0,25.2,30.09,South,180,0.0,0.0,62,0.00,,,0.00,WUHU21523XXSP,2013-04-02 10:17:00,
2013-04-02 06:22:00,36.9,25.2,30.10,South,180,0.0,0.0,62,0.00,,,0.00,WUHU21523XXSP,2013-04-02 10:22:00,
2013-04-02 06:32:00,36.7,25.3,30.10,South,180,0.0,0.0,63,0.00,,,0.00,WUHU21523XXSP,2013-04-02 10:32:00,
2013-04-02 06:37:00,36.7,25.3,30.10,South,180,0.0,0.0,63,0.00,,,0.00,WUHU21523XXSP,2013-04-02 10:37:00,
2013-04-02 06:47:00,36.5,25.1,30.11,South,180,0.0,0.0,63,0.00,,,0.00,WUHU21523XXSP,2013-04-02 10:47:00,
2013-04-02 06:57:00,36.3,24.9,30.12,South,180,0.0,0.0,63,0.00,,,0.00,WUHU21523XXSP,2013-04-02 10:57:00,
2013-04-02 07:02:00,36.1,25.1,30.12,SSE,157,0.0,0.0,64,0.00,,,0.00,WUHU21523XXSP,2013-04-02 11:02:00,
2013-04-02 07:07:00,36.1,25.1,30.12,SSE,157,0.0,0.0,64,0.00,,,0.00,WUHU21523XXSP,2013-04-02 11:07:00,
2013-04-02 07:12:00,36.1,25.1,30.13,SSE,157,0.0,0.0,64,0.00,,,0.00,WUHU21523XXSP,2013-04-02 11:12:00,
2013-04-02 07:17:00,36.1,25.1,30.13,SSE,157,0.0,0.0,64,0.00,,,0.00,WUHU21523XXSP,2013-04-02 11:17:00,
2013-04-02 07:27:00,36.1,25.1,30.14,SSE,157,0.0,0.0,64,0.00,,,0.00,WUHU21523XXSP,2013-04-02 11:27:00,
2013-04-02 07:32:00,36.1,25.5,30.14,SSE,157,0.0,0.0,65,0.00,,,0.00,WUHU21523XXSP,2013-04-02 11:32:00,
2013-04-02 07:37:00,36.1,25.5,30.13,SSE,157,0.0,0.0,65,0.00,,,0.00,WUHU21523XXSP,2013-04-02 11:37:00,
2013-04-02 07:42:00,36.1,25.5,30.14,SSE,157,0.0,0.0,65,0.00,,,0.00,WUHU21523XXSP,2013-04-02 11:42:00,
2013-04-02 07:47:00,36.1,25.5,30.14,SSE,157,0.0,0.0,65,0.00,,,0.00,WUHU21523XXSP,2013-04-02 11:47:00,
2013-04-02 07:52:00,36.1,25.5,30.15,SSE,157,0.0,0.0,65,0.00,,,0.00,WUHU21523XXSP,2013-04-02 11:52:00,
2013-04-02 07:57:00,36.1,25.5,30.15,SSE,157,0.0,0.0,65,0.00,,,0.00,WUHU21523XXSP,2013-04-02 11:57:00,
2013-04-02 08:02:00,36.3,25.7,30.15,SSE,157,0.0,0.0,65,0.00,,,0.00,WUHU21523XXSP,2013-04-02 12:02:00,
2013-04-02 08:07:00,36.5,25.8,30.15,SSE,157,0.0,0.0,65,0.00,,,0.00,WUHU21523XXSP,2013-04-02 12:07:00,
2013-04-02 08:12:00,36.7,25.6,30.15,SSE,157,0.0,0.0,64,0.00,,,0.00,WUHU21523XXSP,2013-04-02 12:12:00,
2013-04-02 08:17:00,37.0,25.2,30.15,West,270,0.0,0.0,62,0.00,,,0.00,WUHU21523XXSP,2013-04-02 12:17:00,
2013-04-02 08:22:00,37.2,25.4,30.16,West,270,0.0,0.0,62,0.00,,,0.00,WUHU21523XXSP,2013-04-02 12:22:00,
2013-04-02 08:27:00,37.6,25.3,30.16,SW,225,0.0,0.0,61,0.00,,,0.00,WUHU21523XXSP,2013-04-02 12:27:00,
2013-04-02 08:32:00,37.8,25.1,30.16,West,270,0.0,0.0,60,0.00,,,0.00,WUHU21523XXSP,2013-04-02 12:32:00,
2013-04-02 08:37:00,38.1,25.0,30.16,WNW,292,0.0,2.2,59,0.00,,,0.00,WUHU21523XXSP,2013-04-02 12:37:00,
2013-04-02 08:42:00,38.3,24.7,30.16,NNW,337,0.0,2.2,58,0.00,,,0.00,WUHU21523XXSP,2013-04-02 12:42:00,
2013-04-02 08:47:00,38.5,24.0,30.16,NNW,346,3.7,4.7,56,0.00,,,0.00,WUHU21523XXSP,2013-04-02 12:47:00,
2013-04-02 08:52:00,38.8,23.5,30.16,NW,315,3.3,4.7,54,0.00,,,0.00,WUHU21523XXSP,2013-04-02 12:52:00,
2013-04-02 08:57:00,39.0,23.2,30.16,NW,315,2.5,4.7,53,0.00,,,0.00,WUHU21523XXSP,2013-04-02 12:57:00,
2013-04-02 09:02:00,39.0,23.7,30.15,NW,315,1.3,2.5,54,0.00,,,0.00,WUHU21523XXSP,2013-04-02 13:02:00,
2013-04-02 09:07:00,39.4,23.1,30.16,NNE,22,4.7,4.7,52,0.00,,,0.00,WUHU21523XXSP,2013-04-02 13:07:00,
2013-04-02 09:12:00,39.6,23.7,30.15,SW,225,0.0,4.7,53,0.00,,,0.00,WUHU21523XXSP,2013-04-02 13:12:00,
2013-04-02 09:17:00,39.7,23.4,30.15,SSW,202,2.9,2.9,52,0.00,,,0.00,WUHU21523XXSP,2013-04-02 13:17:00,
2013-04-02 09:22:00,39.7,23.0,30.16,NW,315,2.5,2.9,51,0.00,,,0.00,WUHU21523XXSP,2013-04-02 13:22:00,
2013-04-02 09:27:00,39.9,23.2,30.16,WNW,302,5.0,6.3,51,0.00,,,0.00,WUHU21523XXSP,2013-04-02 13:27:00,
2013-04-02 09:32:00,40.1,22.9,30.16,WNW,292,2.0,6.3,50,0.00,,,0.00,WUHU21523XXSP,2013-04-02 13:32:00,
2013-04-02 09:37:00,40.3,23.1,30.16,WNW,302,3.1,4.7,50,0.00,,,0.00,WUHU21523XXSP,2013-04-02 13:37:00,
2013-04-02 09:42:00,40.6,22.9,30.16,NNW,337,7.4,7.4,49,0.00,,,0.00,WUHU21523XXSP,2013-04-02 13:42:00,
2013-04-02 09:47:00,40.8,23.6,30.15,NW,326,3.5,7.4,50,0.00,,,0.00,WUHU21523XXSP,2013-04-02 13:47:00,
2013-04-02 09:52:00,40.8,23.0,30.15,NNW,337,4.3,4.3,49,0.00,,,0.00,WUHU21523XXSP,2013-04-02 13:52:00,
2013-04-02 09:57:00,41.2,23.4,30.16,NW,315,1.9,4.3,49,0.00,,,0.00,WUHU21523XXSP,2013-04-02 13:57:00,
2013-04-02 10:02:00,41.4,23.0,30.16,NNW,337,5.8,5.8,48,0.00,,,0.00,WUHU21523XXSP,2013-04-02 14:02:00,
2013-04-02 10:07:00,41.5,23.2,30.16,NNW,337,3.9,5.8,48,0.00,,,0.00,WUHU21523XXSP,2013-04-02 14:07:00,
2013-04-02 10:12:00,41.7,23.4,30.16,WNW,292,2.9,5.8,48,0.00,,,0.00,WUHU21523XXSP,2013-04-02 14:12:00,
2013-04-02 10:17:00,42.1,23.2,30.16,NW,315,2.0,3.4,47,0.00,,,0.00,WUHU21523XXSP,2013-04-02 14:17:00,
2013-04-02 10:22:00,42.1,23.2,30.16,NNW,337,0.0,2.9,47,0.00,,,0.00,WUHU21523XXSP,2013-04-02 14:22:00,
2013-04-02 10:27:00,42.4,23.0,30.17,NW,315,3.3,4.7,46,0.00,,,0.00,WUHU21523XXSP,2013-04-02 14:27:00,
2013-04-02 10:32:00,42.4,23.0,30.17,NW,323,3.6,4.7,46,0.00,,,0.00,WUHU21523XXSP,2013-04-02 14:32:00,
2013-04-02 10:37:00,42.6,22.6,30.17,NNE,22,6.0,6.0,45,0.00,,,0.00,WUHU21523XXSP,2013-04-02 14:37:00,
2013-04-02 10:42:00,42.8,22.8,30.17,NNW,342,3.9,6.0,45,0.00,,,0.00,WUHU21523XXSP,2013-04-02 14:42:00,
2013-04-02 10:47:00,43.0,22.4,30.17,NW,315,3.1,6.0,44,0.00,,,0.00,WUHU21523XXSP,2013-04-02 14:47:00,
2013-04-02 10:52:00,43.0,22.4,30.17,North,0,1.8,7.4,44,0.00,,,0.00,WUHU21523XXSP,2013-04-02 14:52:00,
2013-04-02 10:57:00,43.3,22.8,30.17,WNW,292,0.2,7.4,44,0.00,,,0.00,WUHU21523XXSP,2013-04-02 14:57:00,
2013-04-02 11:02:00,43.5,22.4,30.17,NW,315,2.7,5.4,43,0.00,,,0.00,WUHU21523XXSP,2013-04-02 15:02:00,
2013-04-02 11:13:00,43.7,20.9,30.16,North,0,6.0,6.9,40,0.00,,,0.00,WUHU21523XXSP,2013-04-02 15:13:00,
2013-04-02 11:18:00,43.7,21.5,30.16,NW,315,5.7,6.9,41,0.00,,,0.00,WUHU21523XXSP,2013-04-02 15:18:00,
2013-04-02 11:23:00,43.9,21.6,30.17,NNW,345,2.7,6.9,41,0.00,,,0.00,WUHU21523XXSP,2013-04-02 15:23:00,
2013-04-02 11:28:00,44.4,21.6,30.17,NW,307,5.2,6.7,40,0.00,,,0.00,WUHU21523XXSP,2013-04-02 15:28:00,
2013-04-02 11:33:00,44.4,20.9,30.17,NNW,330,3.7,6.7,39,0.00,,,0.00,WUHU21523XXSP,2013-04-02 15:33:00,
2013-04-02 11:38:00,44.6,21.7,30.17,NNW,337,4.9,6.7,40,0.00,,,0.00,WUHU21523XXSP,2013-04-02 15:38:00,
2013-04-02 11:48:00,45.0,19.9,30.17,NW,315,0.9,13.2,37,0.00,,,0.00,WUHU21523XXSP,2013-04-02 15:48:00,
2013-04-02 11:53:00,45.1,20.9,30.17,North,0,3.5,13.2,38,0.00,,,0.00,WUHU21523XXSP,2013-04-02 15:53:00,
2013-04-02 11:58:00,45.3,20.4,30.17,NNE,26,5.5,9.2,37,0.00,,,0.00,WUHU21523XXSP,2013-04-02 15:58:00,
2013-04-02 12:08:00,45.7,20.7,30.16,NNW,337,3.4,9.2,37,0.00,,,0.00,WUHU21523XXSP,2013-04-02 16:08:00,
2013-04-02 12:18:00,46.0,20.4,30.16,NNW,337,5.7,11.6,36,0.00,,,0.00,WUHU21523XXSP,2013-04-02 16:18:00,
2013-04-02 12:28:00,46.2,20.5,30.16,NE,45,3.1,5.1,36,0.00,,,0.00,WUHU21523XXSP,2013-04-02 16:28:00,
2013-04-02 12:33:00,46.2,20.5,30.15,NNW,331,3.6,5.4,36,0.00,,,0.00,WUHU21523XXSP,2013-04-02 16:33:00,
2013-04-02 12:38:00,46.6,20.9,30.16,NW,309,2.1,5.4,36,0.00,,,0.00,WUHU21523XXSP,2013-04-02 16:38:00,
2013-04-02 12:48:00,47.1,21.3,30.15,NNE,22,2.9,5.8,36,0.00,,,0.00,WUHU21523XXSP,2013-04-02 16:48:00,
2013-04-02 12:53:00,47.1,21.3,30.15,NNE,22,3.1,4.5,36,0.00,,,0.00,WUHU21523XXSP,2013-04-02 16:53:00,
2013-04-02 13:03:00,47.3,20.2,30.15,West,269,2.2,6.0,34,0.00,,,0.00,WUHU21523XXSP,2013-04-02 17:03:00,
2013-04-02 13:08:00,47.5,21.0,30.15,WSW,254,1.2,4.3,35,0.00,,,0.00,WUHU21523XXSP,2013-04-02 17:08:00,
2013-04-02 13:13:00,48.0,21.5,30.15,SW,234,2.2,4.0,35,0.00,,,0.00,WUHU21523XXSP,2013-04-02 17:13:00,
2013-04-02 13:18:00,48.2,21.0,30.14,NW,313,11.6,21.3,34,0.00,,,0.00,WUHU21523XXSP,2013-04-02 17:18:00,
2013-04-02 13:23:00,48.2,20.3,30.14,NW,305,4.5,21.3,33,0.00,,,0.00,WUHU21523XXSP,2013-04-02 17:23:00,
2013-04-02 13:33:00,48.4,20.5,30.13,NNW,337,6.7,7.8,33,0.00,,,0.00,WUHU21523XXSP,2013-04-02 17:33:00,
2013-04-02 13:43:00,48.6,19.3,30.13,WNW,300,3.4,4.5,31,0.00,,,0.00,WUHU21523XXSP,2013-04-02 17:43:00,
2013-04-02 13:48:00,48.7,20.1,30.13,NW,315,3.3,4.5,32,0.00,,,0.00,WUHU21523XXSP,2013-04-02 17:48:00,
2013-04-02 13:58:00,49.1,19.0,30.12,North,354,3.5,6.9,30,0.00,,,0.00,WUHU21523XXSP,2013-04-02 17:58:00,
2013-04-02 14:03:00,49.3,18.2,30.12,NNE,22,8.1,8.1,29,0.00,,,0.00,WUHU21523XXSP,2013-04-02 18:03:00,
2013-04-02 14:08:00,49.3,18.2,30.12,WNW,292,3.8,8.1,29,0.00,,,0.00,WUHU21523XXSP,2013-04-02 18:08:00,
2013-04-02 14:13:00,49.6,19.5,30.12,SSW,202,3.1,6.7,30,0.00,,,0.00,WUHU21523XXSP,2013-04-02 18:13:00,
2013-04-02 14:18:00,49.8,19.6,30.12,North,355,3.9,6.7,30,0.00,,,0.00,WUHU21523XXSP,2013-04-02 18:18:00,
2013-04-02 14:28:00,50.2,18.1,30.12,NW,324,5.4,8.1,28,0.00,,,0.00,WUHU21523XXSP,2013-04-02 18:28:00,
2013-04-02 14:33:00,50.2,17.1,30.12,NW,315,5.4,8.1,27,0.00,,,0.00,WUHU21523XXSP,2013-04-02 18:33:00,
2013-04-02 14:38:00,50.2,19.0,30.11,NNW,337,4.4,6.7,29,0.00,,,0.00,WUHU21523XXSP,2013-04-02 18:38:00,
2013-04-02 14:43:00,50.4,18.2,30.11,NNW,330,5.9,8.1,28,0.00,,,0.00,WUHU21523XXSP,2013-04-02 18:43:00,
2013-04-02 14:48:00,50.5,17.5,30.11,NNE,14,3.8,8.1,27,0.00,,,0.00,WUHU21523XXSP,2013-04-02 18:48:00,
2013-04-02 14:53:00,50.7,18.6,30.10,NNW,337,6.5,7.2,28,0.00,,,0.00,WUHU21523XXSP,2013-04-02 18:53:00,
2013-04-02 14:58:00,50.7,18.6,30.10,North,9,3.7,6.5,28,0.00,,,0.00,WUHU21523XXSP,2013-04-02 18:58:00,
2013-04-02 15:08:00,51.3,19.0,30.09,NNE,22,4.5,4.5,28,0.00,,,0.00,WUHU21523XXSP,2013-04-02 19:08:00,
2013-04-02 15:18:00,51.6,19.3,30.09,WNW,292,2.7,4.5,28,0.00,,,0.00,WUHU21523XXSP,2013-04-02 19:18:00,
2013-04-02 15:23:00,51.6,19.3,30.09,NNE,22,3.4,3.4,28,0.00,,,0.00,WUHU21523XXSP,2013-04-02 19:23:00,
2013-04-02 15:28:00,51.6,19.3,30.08,NNE,12,0.8,3.4,28,0.00,,,0.00,WUHU21523XXSP,2013-04-02 19:28:00,
2013-04-02 15:33:00,51.6,20.3,30.08,SW,233,1.9,2.7,29,0.00,,,0.00,WUHU21523XXSP,2013-04-02 19:33:00,
2013-04-02 15:38:00,52.2,20.8,30.08,SW,225,0.0,2.7,29,0.00,,,0.00,WUHU21523XXSP,2013-04-02 19:38:00,
2013-04-02 15:43:00,52.2,20.8,30.08,NW,315,2.2,6.9,29,0.00,,,0.00,WUHU21523XXSP,2013-04-02 19:43:00,
2013-04-02 15:48:00,52.3,20.9,30.08,NNW,337,1.1,6.9,29,0.00,,,0.00,WUHU21523XXSP,2013-04-02 19:48:00,
2013-04-02 15:58:00,52.5,21.1,30.08,WSW,247,0.0,5.4,29,0.00,,,0.00,WUHU21523XXSP,2013-04-02 19:58:00,
2013-04-02 16:03:00,52.5,20.1,30.07,NNW,337,3.1,5.4,28,0.00,,,0.00,WUHU21523XXSP,2013-04-02 20:03:00,
2013-04-02 16:08:00,52.7,20.3,30.07,NNE,22,11.4,11.4,28,0.00,,,0.00,WUHU21523XXSP,2013-04-02 20:08:00,
2013-04-02 16:18:00,53.2,21.7,30.07,NW,315,2.5,11.4,29,0.00,,,0.00,WUHU21523XXSP,2013-04-02 20:18:00,
2013-04-02 16:23:00,53.2,20.8,30.07,NNE,22,0.0,2.5,28,0.00,,,0.00,WUHU21523XXSP,2013-04-02 20:23:00,
2013-04-02 16:28:00,52.9,19.5,30.07,WNW,292,1.1,5.6,27,0.00,,,0.00,WUHU21523XXSP,2013-04-02 20:28:00,
2013-04-02 16:33:00,52.9,20.4,30.07,North,356,6.9,8.5,28,0.00,,,0.00,WUHU21523XXSP,2013-04-02 20:33:00,
2013-04-02 16:38:00,52.9,20.4,30.07,NNW,331,2.3,8.5,28,0.00,,,0.00,WUHU21523XXSP,2013-04-02 20:38:00,
2013-04-02 16:43:00,53.1,20.4,30.08,SSW,202,0.0,25.9,28,0.00,,,0.00,WUHU21523XXSP,2013-04-02 20:43:00,
2013-04-02 16:48:00,53.4,20.9,30.07,SW,225,4.5,25.9,28,0.00,,,0.00,WUHU21523XXSP,2013-04-02 20:48:00,
2013-04-02 16:53:00,53.4,20.9,30.08,NW,315,0.9,4.5,28,0.00,,,0.00,WUHU21523XXSP,2013-04-02 20:53:00,
2013-04-02 16:58:00,53.4,19.0,30.08,SW,235,1.4,3.1,26,0.00,,,0.00,WUHU21523XXSP,2013-04-02 20:58:00,
2013-04-02 17:03:00,53.4,20.0,30.08,NW,315,1.3,3.1,27,0.00,,,0.00,WUHU21523XXSP,2013-04-02 21:03:00,
2013-04-02 17:08:00,53.6,20.1,30.08,SW,225,1.1,2.0,27,0.00,,,0.00,WUHU21523XXSP,2013-04-02 21:08:00,
2013-04-02 17:13:00,53.8,20.3,30.08,WSW,258,4.2,6.5,27,0.00,,,0.00,WUHU21523XXSP,2013-04-02 21:13:00,
2013-04-02 17:18:00,53.6,20.1,30.08,West,270,6.0,6.5,27,0.00,,,0.00,WUHU21523XXSP,2013-04-02 21:18:00,
2013-04-02 17:23:00,53.4,20.0,30.07,South,180,7.8,7.8,27,0.00,,,0.00,WUHU21523XXSP,2013-04-02 21:23:00,
2013-04-02 17:34:00,53.4,18.1,30.07,NW,315,2.1,3.6,25,0.00,,,0.00,WUHU21523XXSP,2013-04-02 21:34:00,
2013-04-02 17:43:00,52.9,18.6,30.08,West,270,3.6,3.6,26,0.00,,,0.00,WUHU21523XXSP,2013-04-02 21:43:00,
2013-04-02 17:48:00,52.9,18.6,30.08,West,270,0.0,3.6,26,0.00,,,0.00,WUHU21523XXSP,2013-04-02 21:48:00,
2013-04-02 17:58:00,52.5,18.2,30.08,NW,315,7.6,7.6,26,0.00,,,0.00,WUHU21523XXSP,2013-04-02 21:58:00,
2013-04-02 18:03:00,52.5,17.3,30.08,NNW,337,3.4,7.6,25,0.00,,,0.00,WUHU21523XXSP,2013-04-02 22:03:00,
2013-04-02 18:08:00,52.5,18.2,30.08,West,270,0.6,7.6,26,0.00,,,0.00,WUHU21523XXSP,2013-04-02 22:08:00,
2013-04-02 18:13:00,52.3,18.1,30.09,SW,225,3.8,7.6,26,0.00,,,0.00,WUHU21523XXSP,2013-04-02 22:13:00,
2013-04-02 18:18:00,52.3,18.1,30.09,NNW,329,1.4,7.6,26,0.00,,,0.00,WUHU21523XXSP,2013-04-02 22:18:00,
2013-04-02 18:23:00,52.3,18.1,30.09,NW,315,5.6,5.6,26,0.00,,,0.00,WUHU21523XXSP,2013-04-02 22:23:00,
2013-04-02 18:28:00,52.2,17.9,30.09,West,270,0.0,5.6,26,0.00,,,0.00,WUHU21523XXSP,2013-04-02 22:28:00,
2013-04-02 18:33:00,52.2,17.9,30.09,NNW,337,1.1,1.1,26,0.00,,,0.00,WUHU21523XXSP,2013-04-02 22:33:00,
2013-04-02 18:38:00,52.0,17.8,30.09,NW,315,3.4,3.4,26,0.00,,,0.00,WUHU21523XXSP,2013-04-02 22:38:00,
2013-04-02 18:43:00,52.0,18.7,30.09,NNW,337,0.9,3.4,27,0.00,,,0.00,WUHU21523XXSP,2013-04-02 22:43:00,
2013-04-02 18:48:00,51.8,17.6,30.09,NNW,334,3.1,4.9,26,0.00,,,0.00,WUHU21523XXSP,2013-04-02 22:48:00,
2013-04-02 18:53:00,51.6,17.5,30.09,NW,315,2.0,4.9,26,0.00,,,0.00,WUHU21523XXSP,2013-04-02 22:53:00,
2013-04-02 18:58:00,51.6,17.5,30.09,NW,315,2.0,4.3,26,0.00,,,0.00,WUHU21523XXSP,2013-04-02 22:58:00,
2013-04-02 19:03:00,51.6,17.5,30.09,NNW,337,0.0,4.3,26,0.00,,,0.00,WUHU21523XXSP,2013-04-02 23:03:00,
2013-04-02 19:08:00,51.3,17.2,30.10,NNW,337,1.1,1.1,26,0.00,,,0.00,WUHU21523XXSP,2013-04-02 23:08:00,
2013-04-02 19:13:00,51.1,17.0,30.09,NW,315,1.1,1.1,26,0.00,,,0.00,WUHU21523XXSP,2013-04-02 23:13:00,
2013-04-02 19:18:00,51.1,17.0,30.10,West,270,0.0,1.1,26,0.00,,,0.00,WUHU21523XXSP,2013-04-02 23:18:00,
2013-04-02 19:23:00,50.7,17.6,30.10,NW,315,0.0,2.5,27,0.00,,,0.00,WUHU21523XXSP,2013-04-02 23:23:00,
2013-04-02 19:28:00,50.7,17.6,30.10,WNW,292,0.0,2.5,26,0.00,,,0.00,WUHU21523XXSP,2013-04-02 23:28:00,
2013-04-02 19:33:00,50.5,17.5,30.11,NNW,337,4.0,4.0,27,0.00,,,0.00,WUHU21523XXSP,2013-04-02 23:33:00,
2013-04-02 19:43:00,49.8,16.8,30.10,NW,315,0.0,0.0,27,0.00,,,0.00,WUHU21523XXSP,2013-04-02 23:43:00,
2013-04-02 19:48:00,49.8,16.8,30.11,NW,315,0.0,0.0,27,0.00,,,0.00,WUHU21523XXSP,2013-04-02 23:48:00,
2013-04-02 19:53:00,49.6,17.6,30.11,WNW,292,0.9,0.9,28,0.00,,,0.00,WUHU21523XXSP,2013-04-02 23:53:00,
2013-04-02 19:58:00,49.3,17.3,30.11,NE,45,0.0,0.9,28,0.00,,,0.00,WUHU21523XXSP,2013-04-02 23:58:00,
2013-04-02 20:03:00,49.1,17.2,30.11,NE,45,0.0,0.0,28,0.00,,,0.00,WUHU21523XXSP,2013-04-03 00:03:00,
2013-04-02 20:08:00,48.9,18.0,30.11,WNW,292,0.0,0.0,29,0.00,,,0.00,WUHU21523XXSP,2013-04-03 00:08:00,
2013-04-02 20:13:00,48.7,17.8,30.12,WNW,292,0.0,0.0,29,0.00,,,0.00,WUHU21523XXSP,2013-04-03 00:13:00,
2013-04-02 20:18:00,48.6,17.7,30.12,NE,45,0.0,0.0,29,0.00,,,0.00,WUHU21523XXSP,2013-04-03 00:18:00,
2013-04-02 20:23:00,48.2,18.3,30.12,NNW,337,0.0,0.0,30,0.00,,,0.00,WUHU21523XXSP,2013-04-03 00:23:00,
2013-04-02 20:33:00,48.0,18.2,30.12,NNE,22,0.0,0.0,30,0.00,,,0.00,WUHU21523XXSP,2013-04-03 00:33:00,
2013-04-02 20:38:00,47.8,18.0,30.12,NNW,337,0.0,2.5,30,0.00,,,0.00,WUHU21523XXSP,2013-04-03 00:38:00,
2013-04-02 20:43:00,47.5,17.7,30.12,NNW,337,0.0,2.5,30,0.00,,,0.00,WUHU21523XXSP,2013-04-03 00:43:00,
2013-04-02 20:48:00,47.3,18.2,30.12,NNW,337,0.0,0.0,31,0.00,,,0.00,WUHU21523XXSP,2013-04-03 00:48:00,
2013-04-02 20:54:00,47.1,18.0,30.12,West,270,0.0,0.0,31,0.00,,,0.00,WUHU21523XXSP,2013-04-03 00:54:00,
2013-04-02 21:03:00,46.9,17.9,30.13,ENE,67,0.0,0.0,31,0.00,,,0.00,WUHU21523XXSP,2013-04-03 01:03:00,
2013-04-02 21:08:00,46.8,17.7,30.13,ENE,67,0.0,0.0,31,0.00,,,0.00,WUHU21523XXSP,2013-04-03 01:08:00,
2013-04-02 21:13:00,46.6,18.2,30.13,ENE,67,0.0,0.0,32,0.00,,,0.00,WUHU21523XXSP,2013-04-03 01:13:00,
2013-04-02 21:18:00,46.6,18.2,30.13,NNW,337,0.0,0.0,32,0.00,,,0.00,WUHU21523XXSP,2013-04-03 01:18:00,
2013-04-02 21:23:00,46.4,18.0,30.14,WNW,292,0.0,1.1,32,0.00,,,0.00,WUHU21523XXSP,2013-04-03 01:23:00,
2013-04-02 21:28:00,46.2,17.9,30.14,NNE,22,0.0,1.1,32,0.00,,,0.00,WUHU21523XXSP,2013-04-03 01:28:00,
2013-04-02 21:33:00,46.2,17.9,30.14,NNE,22,0.0,0.0,32,0.00,,,0.00,WUHU21523XXSP,2013-04-03 01:33:00,
2013-04-02 21:38:00,46.0,18.4,30.15,NNE,22,0.0,0.0,33,0.00,,,0.00,WUHU21523XXSP,2013-04-03 01:38:00,
2013-04-02 21:43:00,46.0,18.4,30.15,NNE,22,0.0,0.0,33,0.00,,,0.00,WUHU21523XXSP,2013-04-03 01:43:00,
2013-04-02 21:48:00,45.7,18.7,30.15,NNE,22,0.0,0.0,34,0.00,,,0.00,WUHU21523XXSP,2013-04-03 01:48:00,
2013-04-02 21:58:00,45.3,19.1,30.15,WSW,247,0.0,1.8,35,0.00,,,0.00,WUHU21523XXSP,2013-04-03 01:58:00,
2013-04-02 22:03:00,45.1,18.9,30.15,South,180,0.0,1.8,35,0.00,,,0.00,WUHU21523XXSP,2013-04-03 02:03:00,
2013-04-02 22:08:00,44.8,19.2,30.15,South,180,0.0,0.0,36,0.00,,,0.00,WUHU21523XXSP,2013-04-03 02:08:00,
2013-04-02 22:13:00,44.6,19.1,30.15,South,180,0.0,0.0,36,0.00,,,0.00,WUHU21523XXSP,2013-04-03 02:13:00,
2013-04-02 22:18:00,44.4,19.6,30.15,South,180,0.0,0.0,37,0.00,,,0.00,WUHU21523XXSP,2013-04-03 02:18:00,
2013-04-02 22:23:00,44.2,19.4,30.16,South,180,0.0,0.0,37,0.00,,,0.00,WUHU21523XXSP,2013-04-03 02:23:00,
2013-04-02 22:33:00,43.9,19.8,30.15,South,180,0.0,0.0,38,0.00,,,0.00,WUHU21523XXSP,2013-04-03 02:33:00,
2013-04-02 22:38:00,43.7,19.6,30.16,South,180,0.0,0.0,38,0.00,,,0.00,WUHU21523XXSP,2013-04-03 02:38:00,
2013-04-02 22:43:00,43.5,19.4,30.16,South,180,0.0,0.0,38,0.00,,,0.00,WUHU21523XXSP,2013-04-03 02:43:00,
2013-04-02 22:48:00,43.5,20.1,30.17,South,180,0.0,0.0,39,0.00,,,0.00,WUHU21523XXSP,2013-04-03 02:48:00,
2013-04-02 22:53:00,43.3,19.9,30.16,South,180,0.0,0.0,39,0.00,,,0.00,WUHU21523XXSP,2013-04-03 02:53:00,
2013-04-02 22:58:00,43.2,19.8,30.16,South,180,0.0,0.0,39,0.00,,,0.00,WUHU21523XXSP,2013-04-03 02:58:00,
2013-04-02 23:03:00,43.0,20.3,30.17,South,180,0.0,0.0,40,0.00,,,0.00,WUHU21523XXSP,2013-04-03 03:03:00,
2013-04-02 23:08:00,42.8,20.1,30.16,South,180,0.0,0.0,40,0.00,,,0.00,WUHU21523XXSP,2013-04-03 03:08:00,
2013-04-02 23:13:00,42.6,20.0,30.16,South,180,0.0,0.0,40,0.00,,,0.00,WUHU21523XXSP,2013-04-03 03:13:00,
2013-04-02 23:19:00,42.4,19.8,30.16,South,180,0.0,0.0,40,0.00,,,0.00,WUHU21523XXSP,2013-04-03 03:19:00,
2013-04-02 23:28:00,42.4,20.3,30.17,South,180,0.0,0.0,41,0.00,,,0.00,WUHU21523XXSP,2013-04-03 03:28:00,
2013-04-02 23:33:00,42.1,20.0,30.16,South,180,0.0,0.0,41,0.00,,,0.00,WUHU21523XXSP,2013-04-03 03:33:00,
2013-04-02 23:43:00,41.9,20.4,30.17,East,90,0.0,0.0,42,0.00,,,0.00,WUHU21523XXSP,2013-04-03 03:43:00,
2013-04-02 23:48:00,41.7,20.2,30.18,East,90,0.0,0.0,42,0.00,,,0.00,WUHU21523XXSP,2013-04-03 03:48:00,
2013-04-02 23:53:00,41.7,20.2,30.17,East,90,0.0,0.0,42,0.00,,,0.00,WUHU21523XXSP,2013-04-03 03:53:00,
2013-04-02 23:58:00,41.5,20.6,30.18,East,90,0.0,0.0,43,0.00,,,0.00,WUHU21523XXSP,2013-04-03 03:58:00,